Dublin, Ireland

7:19 AM GMT on February 08, 2016 (GMT +0000)
Dublin International

Weather History for EIDW - May, 2013

Change the Weather History Date:

Thursday, May 23, 2013

  Actual Average Record
Temperature  
Mean Temperature 45 °F -  
Max Temperature 51 °F 62 °F 68 °F (2012)
Min Temperature 39 °F 48 °F 35 °F (2004)
Degree Days  
Heating Degree Days 20    
Moisture  
Dew Point 35 °F    
Average Humidity 67    
Maximum Humidity 87    
Minimum Humidity 41    
Precipitation  
Precipitation 0.02 in 0.07 in - ()
Sea Level Pressure  
Sea Level Pressure 30.13 in    
Wind  
Wind Speed 14 mph ()    
Max Wind Speed 24 mph    
Max Gust Speed 40 mph    
Visibility 6.5 miles    
Events Rain    
Averages and records for this station are not official NWS values.
T = Trace of Precipitation, MM = Missing Value Source: Averaged Metar Reports

Daily Weather History Graph

Daily Weather History Graph

Search for Another Location

Airport or City:

Trip Planner

Search our weather history database for the weather conditions in past years. The results will help you decide how hot, cold, wet, or windy it might be!

Date:

Astronomy

May. 23, 2013 Rise Set
Actual Time 5:12 AM IST 9:31 PM IST
Civil Twilight 4:25 AM IST 10:18 PM IST
Nautical Twilight 3:15 AM IST 11:30 PM IST
Astronomical Twilight 1:54 AM IST 12:49 AM IST
Moon 7:34 PM IST (5/23) 4:06 AM IST (5/23)
Length of Visible Light 17h 52m
Length of Day
16h 18m
Waxing Gibbous, 96% of the Moon is Illuminated
May 23
Waxing Gibbous
May 25
Full
May 31
Last Quarter
Jun 8
New
Jun 16
First Quarter

Hourly Weather History & Observations

Time (IST) Temp. Windchill Dew Point Humidity Pressure Visibility Wind Dir Wind Speed Gust Speed Precip Events Conditions
12:00 AM 44.6 °F 38.1 °F 35.6 °F 71% 30.18 in 6.2 mi NW 13.8 mph - N/A   Scattered Clouds
12:30 AM 42.8 °F 36.2 °F 35.6 °F 76% 30.18 in 6.2 mi NW 12.7 mph - N/A   Scattered Clouds
1:00 AM 44 °F - 36 °F 64% 30.21 in 19 mi NW 11.2 mph - -   Partly Cloudy
1:00 AM 44.6 °F 38.8 °F 35.6 °F 71% 30.18 in 6.2 mi NW 11.5 mph - N/A   Mostly Cloudy
1:30 AM 42.8 °F 35.8 °F 35.6 °F 76% 30.18 in 6.2 mi NW 13.8 mph - N/A   Mostly Cloudy
2:00 AM 42.8 °F 37.5 °F 37.4 °F 81% 30.18 in 6.2 mi NW 9.2 mph - N/A   Mostly Cloudy
2:30 AM 42.8 °F 36.2 °F 37.4 °F 81% 30.18 in 6.2 mi WNW 12.7 mph - N/A   Partly Cloudy
3:00 AM 39.2 °F 31.2 °F 35.6 °F 87% 30.15 in 6.2 mi WNW 13.8 mph - N/A   Partly Cloudy
3:30 AM 39.2 °F 31.2 °F 35.6 °F 87% 30.15 in 6.2 mi WNW 13.8 mph - N/A   Partly Cloudy
4:00 AM 39.2 °F 31.2 °F 35.6 °F 87% 30.15 in 6.2 mi WNW 13.8 mph - N/A   Partly Cloudy
4:30 AM 39.2 °F 31.2 °F 35.6 °F 87% 30.15 in 6.2 mi West 13.8 mph - N/A   Partly Cloudy
5:00 AM 39.2 °F 33.6 °F 35.6 °F 87% 30.15 in 6.2 mi WNW 8.1 mph - N/A   Partly Cloudy
5:30 AM 39.2 °F 32.5 °F 35.6 °F 87% 30.15 in 6.2 mi West 10.4 mph - N/A   Partly Cloudy
6:00 AM 39.2 °F 30.8 °F 35.6 °F 87% 30.15 in 6.2 mi WNW 15.0 mph - N/A   Partly Cloudy
6:30 AM 41.0 °F 33.9 °F 35.6 °F 81% 30.15 in 6.2 mi West 12.7 mph - N/A   Partly Cloudy
7:00 AM 42 °F - 36 °F 72% 30.18 in 25 mi WNW 11.2 mph - -   Scattered Clouds
7:00 AM 42.8 °F 36.6 °F 35.6 °F 76% 30.15 in 6.2 mi WNW 11.5 mph - N/A   Partly Cloudy
7:30 AM 42.8 °F 35.8 °F 35.6 °F 76% 30.15 in 6.2 mi WNW 13.8 mph - N/A   Scattered Clouds
8:00 AM 44.6 °F 37.8 °F 37.4 °F 76% 30.15 in 6.2 mi WNW 15.0 mph - N/A   Partly Cloudy
8:30 AM 46.4 °F 39.5 °F 35.6 °F 66% 30.15 in 6.2 mi NW 17.3 mph - N/A   Scattered Clouds
9:00 AM 46.4 °F 38.1 °F 35.6 °F 66% 30.15 in 6.2 mi NNW 24.2 mph - N/A   Mostly Cloudy
9:30 AM 48.2 °F - 37.4 °F 66% 30.12 in 6.2 mi NNW 21.9 mph 33.4 mph N/A   Mostly Cloudy
10:00 AM 48.2 °F - 35.6 °F 62% 30.12 in 6.2 mi NNW 21.9 mph 33.4 mph N/A   Mostly Cloudy
10:30 AM 50.0 °F - 33.8 °F 54% 30.12 in 6.2 mi NNW 24.2 mph 36.8 mph N/A   Mostly Cloudy
11:00 AM 48.2 °F - 35.6 °F 62% 30.12 in 6.2 mi NNW 20.7 mph 33.4 mph N/A   Mostly Cloudy
11:30 AM 48.2 °F - 33.8 °F 58% 30.12 in 6.2 mi NNW 18.4 mph 35.7 mph N/A Rain Light Rain Showers
12:00 PM 50.0 °F - 35.6 °F 58% 30.12 in 6.2 mi NNW 24.2 mph - N/A Rain Light Rain Showers
12:30 PM 48.2 °F - 37.4 °F 66% 30.12 in 6.2 mi NNW 18.4 mph - N/A   Mostly Cloudy
1:00 PM 48 °F - 34 °F 47% 30.14 in 7 mi NNW 22.4 mph - - Rain Light Rain Showers
1:00 PM 50.0 °F - 33.8 °F 54% 30.12 in 6.2 mi NNW 21.9 mph - N/A Rain Light Rain Showers
1:30 PM 48.2 °F - 41.0 °F 76% 30.12 in 6.2 mi NNW 17.3 mph - N/A   Mostly Cloudy
2:00 PM 44.6 °F 36.9 °F 35.6 °F 71% 30.12 in 6.2 mi North 18.4 mph 32.2 mph N/A   Mostly Cloudy
2:30 PM 50.0 °F - 33.8 °F 54% 30.12 in 6.2 mi NNW 18.4 mph 31.1 mph N/A   Mostly Cloudy
3:00 PM 48.2 °F - 32.0 °F 54% 30.12 in 6.2 mi NNW 13.8 mph - N/A   Mostly Cloudy
3:30 PM 48.2 °F - 33.8 °F 58% 30.12 in 6.2 mi NW 19.6 mph - N/A   Mostly Cloudy
4:00 PM 50.0 °F - 30.2 °F 47% 30.09 in 6.2 mi NNW 21.9 mph - N/A   Mostly Cloudy
4:30 PM 50.0 °F - 30.2 °F 47% 30.09 in 6.2 mi NW 21.9 mph - N/A   Mostly Cloudy
5:00 PM 50.0 °F - 30.2 °F 47% 30.09 in 6.2 mi NNW 19.6 mph - N/A   Mostly Cloudy
5:30 PM 48.2 °F - 35.6 °F 62% 30.09 in 6.2 mi NNW 23.0 mph - N/A   Mostly Cloudy
6:00 PM 48.2 °F - 35.6 °F 62% 30.09 in 6.2 mi NW 17.3 mph - N/A   Mostly Cloudy
6:30 PM 48.2 °F - 32.0 °F 54% 30.09 in 6.2 mi NW 20.7 mph - N/A   Mostly Cloudy
7:00 PM 48 °F - 32 °F 41% 30.10 in 25 mi NNW 20.1 mph - - Rain Light Rain Showers
7:00 PM 48.2 °F - 32.0 °F 54% 30.06 in 6.2 mi NNW 19.6 mph 31.1 mph N/A   Mostly Cloudy
7:30 PM 46.4 °F 39.5 °F 32.0 °F 57% 30.09 in 6.2 mi NNW 17.3 mph - N/A   Mostly Cloudy
8:00 PM 46.4 °F 39.5 °F 32.0 °F 57% 30.09 in 6.2 mi NNW 17.3 mph - N/A   Mostly Cloudy
8:30 PM 46.4 °F 41.1 °F 33.8 °F 62% 30.09 in 6.2 mi NNW 11.5 mph - N/A   Mostly Cloudy
9:00 PM 46.4 °F 39.5 °F 33.8 °F 62% 30.09 in 6.2 mi NNW 17.3 mph 32.2 mph N/A   Mostly Cloudy
9:30 PM 46.4 °F 40.7 °F 33.8 °F 62% 30.09 in 6.2 mi NNW 12.7 mph - N/A   Mostly Cloudy
10:00 PM 44.6 °F 40.2 °F 33.8 °F 66% 30.09 in 6.2 mi NNW 8.1 mph - N/A   Mostly Cloudy
10:30 PM 44.6 °F 38.1 °F 33.8 °F 66% 30.06 in 6.2 mi NW 13.8 mph - N/A   Mostly Cloudy
11:00 PM 44.6 °F 37.2 °F 33.8 °F 66% 30.09 in 6.2 mi NNW 17.3 mph 40.3 mph N/A Rain Light Rain Showers
11:30 PM 42.8 °F 35.8 °F 33.8 °F 70% 30.06 in 6.2 mi NNW 13.8 mph - N/A   Mostly Cloudy